SCP
0 0 0 0 0 0 0 0 0 0 0 0 0 0 0 0 0 0 0 0 0 0 0 0 0 0 0 0 0 0 0 0 0 0 0 0 0 0 0 0 0 0 0 0
0 0 0 0 0 0 0 0 0 0 0 0 0 0 0 0 0 0 0 0 0 0 0 0 0 0 0 0 0 0 0 0 0 0 0 0 0 0 0 0 0 0 0 0
0 0 0 0 0 0 0 0 0 0 0 0 0 0 0 0 0 0 0 0 0 0 0 0 0 0 0 0 0 0 0 0 0 0 0 0 0 0 0 0 0 0 0 0
0 0 0 0 0 0 0 0 0 0 0 0 0 0 0 0 0 0 0 0 0 0 0 0 0 0 0 0 0 0 0 0 0 0 0 0 0 0 0 0 0 0 0 0
0 0 0 0 0 0 0 0 0 0 0 0 0 0 0 0 0 0 0 0 0 0 0 0 0 0 0 0 0 0 0 0 0 0 0 0 0 0 0 0 0 0 0 0
0 0 0 0 0 0 0 0 0 0 0 0 0 0 0 0 0 0 0 0 0 0 0 0 0 0 0 0 0 0 0 0 0 0 0 0 0 0 0 0 0 0 0 0
0 0 0 0 0 0 0 0 0 0 0 0 0 0 0 0 0 0 0 0 0 0 0 0 0 0 0 0 0 0 0 0 0 0 0 0 0 0 0 0 0 0 0 0
0 0 0 0 0 0 0 0 0 0 0 0 0 0 0 0 0 0 0 -0 0 0 0 0 0 0 0 0 0 0 0 0 0 0 0 0 0 0 0 0 0 0 0 0
0 0 0 0 0 0 0 0 0 0 0 0 0 0 0 0 0 0 0 0 0 0 0 0 0 0 0 0 0 0 0 0 0 0 0 0 0 0 0 0 0 0 0 0
0 0 0 0 0 0 0 0 0 0 0 0 0 0 0 0 0 0 0 0 0 0 0 0 0 0 0 0 0 0 0 0 0 0 0 0 0 0 0 0 0 0 0 0
0 0 0 0 0 0 0 0 0 0 0 0 0 0 0 0 0 0 0 0 0 0 0 0 0 0 0 0 0 0 0 0 0 0 0 0 0 0 0 0 0 0 0 0
0 0 0 0 0 0 0 0 0 0 0 0 0 0 0 0 0 0 0 0 0 0 0 0 0 0 0 0 0 0 0 0 0 0 0 0 0 0 0 0 0 0 0 0
0 0 0 0 0 0 0 0 0 0 0 0 0 0 0 0 0 0 0 0 0 0 0 0 0 0 0 0 0 0 0 0 0 0 0 0 0 0 0 0 0 0 0 0
0 0 0 0 0 0 0 0 0 0 0 0 0 0 0 0 0 0 0 0 0 0 0 0 0 0 0 0 0 0 0 0 0 0 0 0 0 0 0 0 0 0 0 0
0 0 0 0 0 0 0 0 0 0 0 0 0 0 0 0 0 0 0 0 0 0 0 0 0 0 0 0 0 0 0 0 0 0 0 0 0 0 0 0 0 0 0 0
0 0 0 0 0 0 0 0 0 0 -0 -0 0 0 0 0 0 0 0 0 0 0 0 0 0 0 0 0 0 0 0 0 0 0 0 0 0 0 0 0 0 0 0 0
0 0 0 0 0 0 0 0 0 0 -0 -0 0 0 0 0 0 0 0 0 0 0 0 0 0 0 0 0 0 0 0 0 0 0 0 0 0 0 0 0 0 0 0 0
0 0 0 0 0 0 0 0 0 0 -0 -0 0 0 0 0 0 0 0 0 0 0 0 0 0 0 0 0 0 0 0 0 0 0 0 0 0 0 0 0 0 0 0 0
0 0 0 0 0 0 0 0 -0 -0 -0 0 0 0 0 0 0 0 0 0 0 0 0 0 0 0 0 0 0 0 0 0 0 0 0 0 0 0 0 0 0 0 0 0
0 0 0 0 0 0 0 0 0 0 0 0 0 0 0 0 0 0 0 0 0 0 0 0 0 0 0 0 0 0 0 0 0 0 0 0 0 0 0 0 0 0 0 0
0 0 0 0 0 0 0 0 0 0 0 0 0 0 0 0 0 0 0 0 0 0 0 0 0 0 0 0 0 0 0 0 0 0 0 0 0 0 0 0 0 0 0 0
0 0 0 0 0 0 0 0 0 0 0 0 0 0 0 0 0 0 0 0 0 0 0 0 0 0 0 0 0 0 0 0 0 0 0 0 0 0 0 0 0 0 0 0
0 0 0 0 0 0 0 0 0 0 0 0 0 0 0 0 0 0 0 0 0 0 0 0 0 0 0 0 0 0 0 0 0 0 0 0 0 0 0 0 0 0 0 0
0 0 0 0 0 0 0 0 0 0 0 0 0 0 0 0 0 0 0 0 0 0 0 0 0 0 0 0 0 0 0 0 0 0 0 0 0 0 0 0 0 0 0 0
0 0 0 0 0 0 0 0 0 0 0 0 0 0 0 0 0 0 0 0 0 0 0 0 0 0 0 0 0 0 0 0 0 0 0 0 0 0 0 0 0 0 0 0
0 0 0 0 0 0 0 0 0 0 0 0 0 0 0 0 0 0 0 0 0 0 0 0 0 0 0 0 0 0 0 0 0 0 0 0 0 0 0 0 0 0 0 0
Wind_Speed
3 3 3 6 6 6 5 3 4 6 5 6 8 9 8 6 7 6 5 5 6 6 5 6 6 6 6 4 4 3 2 1 1 1 1 1 2 3 3 3 3 4 3 3
2 4 7 5 5 4 4 3 4 5 4 5 5 6 5 5 8 9 9 8 7 6 5 5 5 4 4 4 3 3 2 1 0 1 1 2 2 2 3 3 4 4 4 4
6 6 5 5 5 5 4 5 5 5 3 2 1 6 3 1 2 4 5 7 8 10 9 7 5 5 4 4 3 3 2 1 0 0 0 1 2 2 3 3 3 4 4 4
5 6 4 5 5 5 4 7 7 4 1 3 1 1 5 1 3 4 4 5 6 8 8 7 6 6 5 4 3 3 2 1 0 0 0 1 1 2 3 3 3 5 4 4
4 4 5 5 6 6 7 6 4 2 2 2 1 3 5 1 3 4 5 6 6 7 8 8 7 7 5 4 4 3 2 1 1 0 0 1 1 2 3 3 4 4 4 4
4 2 4 6 4 5 3 3 5 5 5 2 4 5 4 4 6 5 4 5 6 7 7 7 6 5 4 4 3 3 2 1 1 1 0 0 1 2 3 4 4 4 4 4
3 3 3 3 2 1 4 6 5 6 5 5 2 3 5 5 5 7 8 7 7 7 7 7 7 6 5 5 4 3 2 1 1 1 1 1 1 2 2 3 4 4 3 3
1 4 4 4 6 4 4 8 7 3 3 5 4 1 4 3 4 5 7 7 7 7 7 8 8 7 6 6 4 3 3 2 1 1 2 1 1 1 2 3 3 3 3 4
3 4 4 3 3 6 4 3 6 6 1 1 3 1 3 1 2 3 5 5 7 7 7 7 7 6 6 5 5 5 4 2 2 1 1 1 1 2 2 3 3 3 3 4
4 1 3 2 3 2 5 7 5 4 2 1 3 3 5 6 6 5 5 6 6 6 6 6 6 6 5 5 4 4 4 3 2 1 0 0 1 2 2 3 4 4 4 4
2 2 3 2 2 4 2 2 5 4 5 5 2 6 7 9 8 7 7 7 7 7 7 6 6 5 5 4 4 4 3 2 1 1 0 1 1 2 2 3 4 4 4 4
2 4 1 4 4 4 4 5 6 4 2 4 3 8 6 7 7 7 7 6 6 6 6 6 6 5 4 4 4 4 3 3 2 2 1 0 1 2 3 3 4 4 4 4
3 5 3 5 6 3 2 4 6 6 5 4 3 7 4 2 4 5 6 6 5 5 5 4 4 5 5 4 4 4 3 3 3 2 1 0 1 2 2 3 3 4 4 4
4 3 5 6 6 4 3 4 5 6 4 4 6 6 3 4 5 5 5 6 6 5 6 6 5 5 5 4 4 4 3 3 3 2 1 1 1 1 2 2 3 3 3 4
4 3 3 5 6 4 5 6 6 6 8 8 8 7 8 8 8 8 7 6 5 5 5 6 6 5 4 4 4 3 3 3 3 2 2 2 2 1 2 2 3 3 3 4
3 2 1 3 4 3 4 6 7 7 6 7 5 6 6 4 4 5 6 7 6 6 6 6 5 5 5 5 5 3 3 3 3 3 2 2 1 1 2 2 3 3 3 4
2 3 1 4 5 3 4 7 7 7 7 8 9 9 4 5 7 8 8 7 7 6 5 6 5 5 6 6 5 5 4 3 3 3 2 1 1 1 2 2 2 3 3 3
5 4 3 1 2 4 10 6 6 6 6 6 6 6 8 8 6 5 6 7 6 6 5 5 5 4 4 3 4 4 3 3 3 2 2 2 2 2 2 2 2 3 2 2
6 7 4 2 2 6 8 6 4 4 4 4 6 6 5 5 5 2 2 5 6 6 5 5 4 4 4 4 4 4 3 2 2 2 3 3 3 2 2 2 3 2 2 2
4 5 5 3 2 5 9 6 2 4 3 4 6 8 7 7 4 4 3 5 5 5 4 4 4 4 4 3 4 5 3 2 2 3 4 3 3 3 3 3 3 2 2 2
1 3 3 4 4 8 9 4 3 4 8 4 6 7 8 8 7 6 5 5 5 5 4 5 5 4 3 3 5 4 2 2 3 3 2 2 3 3 4 3 2 2 2 2
6 5 5 5 4 10 6 3 6 9 4 3 5 6 7 6 5 6 7 6 6 5 5 5 6 4 2 3 5 4 1 3 2 1 1 2 3 3 2 2 3 3 2 3
6 8 7 9 10 8 4 6 5 6 5 5 6 6 8 8 7 7 6 6 6 6 5 5 6 5 2 2 3 3 1 1 0 0 1 2 3 3 2 2 3 3 2 2
5 1 2 4 7 5 4 3 3 5 5 5 6 7 8 8 8 7 7 6 5 5 5 5 6 5 2 2 2 1 0 1 2 1 2 2 2 3 3 2 2 2 2 2
5 1 1 4 5 3 5 5 5 4 4 5 5 6 8 9 8 8 7 7 6 5 4 5 5 5 3 2 2 2 2 2 2 1 2 2 2 3 3 3 2 3 3 2
6 6 5 7 8 7 9 8 7 7 7 7 7 5 6 8 9 8 7 6 6 6 5 5 6 5 3 3 3 3 2 2 2 2 2 2 2 2 2 3 4 4 4 6
Wind_Direction
193 132 200 215 192 183 188 215 258 264 223 198 227 247 249 211 192 187 177 176 168 165 156 146 143 134 125 118 111 112 109 92 64 21 345 327 314 308 314 311 308 312 311 316
81 217 215 190 180 180 193 230 260 271 241 207 243 272 268 205 190 180 176 175 163 146 143 145 142 135 132 133 129 121 108 97 79 223 238 241 260 279 283 301 315 312 309 310
188 220 197 182 213 202 222 213 223 243 311 331 41 341 337 331 139 146 160 161 156 158 160 160 151 147 143 148 151 135 138 135 155 264 309 337 345 334 331 321 314 309 308 308
223 238 218 205 219 193 232 227 220 221 89 293 121 269 288 241 137 154 165 158 160 158 158 160 157 156 162 169 157 148 157 172 252 18 32 337 322 305 286 287 294 307 310 310
235 203 187 206 218 201 218 223 224 229 157 319 303 155 283 160 169 193 189 176 170 166 164 167 167 166 168 167 159 163 162 193 303 349 42 17 315 280 290 299 308 313 310 305
243 239 187 194 214 209 199 46 29 44 68 314 251 153 239 224 200 188 192 184 174 168 167 166 164 157 162 168 163 162 159 246 300 342 354 195 296 302 317 318 318 317 310 306
322 303 236 170 153 313 90 78 24 2 14 264 263 135 235 243 192 175 180 189 185 174 164 163 164 168 175 179 181 173 167 233 277 308 307 280 273 294 303 302 307 313 313 308
172 271 240 194 171 178 163 134 153 190 230 285 352 146 256 260 180 169 172 181 184 184 178 177 180 181 185 190 186 180 183 218 256 279 292 289 284 287 290 296 298 301 297 294
181 251 279 234 180 147 137 153 167 140 193 309 331 344 316 288 190 184 185 185 194 193 188 186 186 185 188 190 190 187 186 209 241 265 297 293 296 301 305 310 310 305 304 307
170 217 283 279 76 81 147 148 96 106 134 309 314 238 227 223 224 221 208 207 211 200 192 187 186 189 192 192 189 183 182 193 211 229 282 315 310 309 310 322 325 320 318 321
144 132 311 5 177 190 135 116 109 118 149 152 241 265 229 203 204 200 208 207 200 193 190 189 191 191 188 179 174 181 186 177 183 197 231 12 330 324 330 330 324 323 325 331
132 125 227 265 274 204 171 174 143 144 209 159 174 265 268 201 197 189 197 198 192 187 186 185 185 181 178 176 179 186 188 179 192 193 170 287 327 340 342 333 329 334 336 336
112 111 79 355 340 343 188 179 151 133 125 152 170 264 298 195 201 202 191 190 185 179 176 176 177 182 188 187 189 191 191 189 187 173 153 16 344 347 338 328 329 337 339 341
114 123 156 182 217 223 232 228 166 131 153 206 215 236 255 214 206 206 198 190 184 182 177 177 187 198 198 192 191 192 199 191 177 166 158 209 281 300 316 324 334 337 339 346
122 161 210 226 236 215 220 229 206 185 187 190 224 216 230 217 205 201 194 185 180 185 187 188 193 199 197 193 197 193 192 185 170 160 180 229 255 290 322 334 335 338 343 346
123 164 292 300 285 274 251 239 220 216 207 207 212 238 235 208 177 174 177 175 181 189 192 191 191 187 191 194 196 188 187 185 162 162 196 229 261 299 309 314 330 342 341 338
148 144 132 277 301 2 279 238 214 215 211 189 207 224 193 170 181 183 182 181 185 190 187 183 184 188 195 196 189 187 191 175 161 174 200 216 235 274 289 307 334 333 325 333
158 137 143 223 2 251 250 254 216 213 234 207 197 193 181 183 187 183 176 171 176 177 172 174 174 174 179 178 175 175 166 161 169 187 212 223 228 260 283 304 308 307 309 319
158 144 136 139 223 277 289 278 196 180 260 225 182 177 168 136 85 14 204 163 166 167 165 168 168 159 154 157 158 143 146 155 169 208 224 228 223 242 270 282 284 284 292 307
85 105 122 133 176 245 255 269 220 106 283 270 171 162 155 128 131 234 208 145 134 132 138 140 134 122 131 147 133 124 139 153 210 231 233 232 222 228 247 261 269 269 262 275
82 77 138 173 212 259 254 262 90 145 234 237 171 161 159 172 189 189 153 136 133 131 133 129 121 120 141 145 123 118 130 218 245 242 237 244 242 241 246 260 270 271 274 292
185 175 193 160 192 253 250 155 179 212 212 166 160 159 155 160 145 139 141 140 137 128 122 124 118 116 118 123 118 118 185 254 244 215 250 273 272 272 269 267 281 285 280 286
199 193 190 188 212 238 225 204 206 171 167 174 164 161 145 142 150 151 150 149 147 141 136 128 125 117 95 99 114 126 260 274 170 72 308 299 305 301 297 277 280 290 285 275
279 185 165 249 265 262 248 216 186 176 173 171 165 159 151 151 155 150 150 152 150 146 142 131 122 118 105 79 80 102 328 99 101 53 324 321 320 315 315 306 293 288 285 279
249 293 278 271 279 304 282 238 205 184 162 152 153 159 158 150 152 155 154 156 153 146 141 130 127 125 117 89 59 27 23 73 80 29 349 340 332 321 319 314 291 278 264 247
220 204 203 235 234 214 238 233 205 184 184 173 159 154 156 154 155 153 155 156 149 143 134 124 122 120 111 89 58 23 28 70 78 29 353 342 338 334 333 331 330 317 304 313